Regional Weather Roundup
Issued by NWS

Home | Current Version | Previous Version | Graphics & Text | Print | Product List | Glossary On
Versions: 1 2 3 4 5 6 7 8 9 10 11 12 13 14 15 16 17 18 19 20 21 22 23 24 25 26 27 28 29 30 31 32 33 34 35 36 37 38 39 40 41 42 43 44 45 46 47 48 49 50
000
ASUS43 KDMX 260707
RWRIA

WEATHER ROUNDUP FOR IOWA
NATIONAL WEATHER SERVICE DES MOINES IA
200 AM CDT SUN APR 26 2015

NOTE: "FAIR" INDICATES FEW OR NO CLOUDS BELOW 12,000 FEET WITH NO
SIGNIFICANT WEATHER AND/OR OBSTRUCTIONS TO VISIBILITY.

* - THESE STATIONS ARE NOT NWS STATIONS...THUS NOT UNDER NWS
QUALITY CONTROL.  THEY ALSO DO NOT REPORT WEATHER SUCH
AS PRECIPITATION OR FOG.

IAZ001>003-012>014-020>022-031>034-043>046-260800-
   NORTHWEST IOWA

CITY           SKY/WX    TMP DP  RH WIND       PRES   REMARKS
CARROLL *      MOCLDY    41  39  93 N3        29.94R
CHEROKEE *     MOCLDY    41  37  87 CALM      29.96S
DENISON *      CLOUDY    43  43 100 CALM      29.93R
LE MARS *      CLOUDY    50  41  71 E3        29.98R
ORANGE CITY *  PTCLDY    45  37  76 E3        29.97R
SHELDON *      CLEAR     36  36 100 CALM      29.96R
SIOUX CITY     MOCLDY    50  39  66 E8        29.96R
SPENCER        PTCLDY    35  31  85 CALM      29.96R
STORM LAKE *   CLEAR     41  37  87 NE7       29.96R
$$

IAZ055>058-069>071-079>083-090>094-260800-
   SOUTHWEST IOWA

CITY           SKY/WX    TMP DP  RH WIND       PRES   REMARKS
ATLANTIC *     MOCLDY    45  41  87 NE6       29.93S
AUDUBON *      CLEAR     43  37  81 CALM      29.94S
CLARINDA *     CLOUDY    48  45  87 NE7       29.92S
COUNCIL BLFS * CLOUDY    45  45 100 NE9       29.92S
CRESTON *      CLEAR     43  41  93 NE10      29.91R
HARLAN  *      CLEAR     45  45 100 NE8       29.97R
LAMONI         CLOUDY    47  42  83 NE12      29.89R
RED OAK *      PTCLDY    43  43 100 NE6       29.92R
SHENANDOAH *   CLOUDY    48  45  87 NE7       29.91S
$$

IAZ047>049-059>061-072>074-084-260800-
   CENTRAL IOWA

CITY           SKY/WX    TMP DP  RH WIND       PRES   REMARKS
AMES           CLOUDY    46  38  73 NE3       29.94R
ANKENY *       CLOUDY    46  39  76 E7        29.93R
CHARITON *     MOCLDY    43  39  87 NE10      29.91R
DES MOINES     CLOUDY    48  38  68 E7        29.93R
GRINNELL*      CLOUDY    45  39  81 NE8       29.93R
KNOXVILLE *    CLOUDY    45  37  76 E8        29.91R
MARSHALLTOWN   MOCLDY    43  38  82 NE7       29.93R
PELLA *        CLOUDY    46  43  87 E5        29.93R
PERRY *        CLOUDY    45  39  81 E6        29.93R
$$

IAZ004>006-015-016-023>025-035-036-260800-
   NORTH CENTRAL IOWA

CITY           SKY/WX    TMP DP  RH WIND       PRES   REMARKS
ALGONA *       CLEAR     39  39 100 CALM      29.96S
CLARION *      CLEAR     37  37 100 NE7       29.95S WCI  32
ESTHERVILLE    PTCLDY    33  31  92 N5        29.95S WCI  29
FORT DODGE *   MOCLDY    41  36  81 NE8       29.95S
MASON CITY     CLEAR     34  32  92 CALM      29.97R
FOREST CITY *    N/A     32  32 100 CALM      29.95S FOG
IOWA FALLS *   CLOUDY    43  37  81 NE3       29.95S
$$

IAZ007>011-017>019-026>030-037>042-050>054-066-260800-
   NORTHEAST IOWA

CITY           SKY/WX    TMP DP  RH WIND       PRES   REMARKS
CEDAR RAPIDS   CLOUDY    44  37  76 NE8       29.92R
CHARLES CITY * CLEAR     39  36  87 NE7       29.96S WCI  34
CLINTON *      CLEAR     36  30  80 NE7       29.94S WCI  30
DECORAH *      CLEAR     39  28  65 CALM      29.96R
DUBUQUE        CLEAR     37  29  72 NE8       29.93S WCI  31
MONTICELLO *   CLEAR     41  36  81 CALM      29.93S
OELWEIN *      CLEAR     37  32  81 NE6       29.95R WCI  33
WATERLOO       PTCLDY    35  31  85 NE5       29.95R WCI  31
$$

IAZ064-065-067-068-078-260800-
   EAST CENTRAL IOWA

CITY           SKY/WX    TMP DP  RH WIND       PRES   REMARKS
DAVENPORT      CLEAR     39  33  79 NE6       29.92R WCI  35
IOWA CITY      CLOUDY    45  38  76 NE8       29.94R
MT. PLEASANT * CLOUDY    43  39  87 NE7       29.91R
MUSCATINE *    PTCLDY    43  37  81 NE8       29.92R
QUAD CITIES    PTCLDY    42  33  70 NE6       29.91S
$$

IAZ062-063-075>077-085>089-095>099-260800-
   SOUTHEAST IOWA

CITY           SKY/WX    TMP DP  RH WIND       PRES   REMARKS
BURLINGTON     CLOUDY    45  37  73 NE13G20   29.89R
FAIRFIELD *    CLOUDY    43  37  81 NE7       29.91R
FORT MADISON * CLOUDY    45  39  81 NE7       29.90R
KEOKUK *       CLOUDY    45  41  87 NE8       29.88R
OSKALOOSA *      N/A     41  37  87 NE7       29.92R
CENTERVILLE *  CLOUDY    45  41  87 NE10G18   29.90S
OTTUMWA        PTCLDY    43  37  79 NE8       29.91R
WASHINGTON *   CLOUDY    45  45 100 NE8       29.91S
$$

ABBREVIATIONS USED IN REMARKS
   TC - TEMPERATURES IN CELSIUS
  WCI - WIND CHILL INDEX
   HX - HEAT INDEX
  VSB - VISIBILITY
$$



USA.gov is the U.S. government's official web portal to all federal, state and local government web resources and services.